Home   Weather   Vadsø   Past weeks

Flag for Norway Past Weather in Vadsø, Norway — Yesterday and Last 2 Weeks

34 °F


Feels Like: 25 °F
Forecast: 32 / 35 °F
Wind: 12 mph from South

Location: Kirkenes Lufthavn

Current Time: Oct 22, 2016 at 9:43:11 PM

Latest Report: Oct 22, 2016 at 8:50 PM

Visibility: N/A

Pressure: 30.77 "Hg

Humidity: 93%

Dew Point: 32 °F

Location of VadsøLocation

Past Weather in Vadsø — Graph


Vadsø Temperature Yesterday

Maximum temperature yesterday: 41 °F (at 12:20 AM)
Minimum temperature yesterday: 32 °F (at 7:50 PM)
Average temperature yesterday: 36 °F

High & Low Weather Summary for the Past Weeks

High48 °F (Oct 8, 10:50 AM)100% (Oct 10, 6:50 AM)30.77 "Hg (Oct 10, 6:50 AM)
Low28 °F (Oct 17, 9:20 PM)75% (Oct 11, 11:50 PM)30.12 "Hg (Oct 18, 10:20 PM)
Average38 °F89%30.43 "Hg
* Reported Oct 7 8:20 PM — Oct 22 8:20 PM, Vadsø, Weather by CustomWeather, © 2016

Note: Actual official high and low records may vary slightly from our data, if they occured in-between our weather recording intervals... More about our weather records


Vadsø Weather History for the Previous 24 Hours

Scroll right to see more
Time TempWeatherWind HumidityBarometerVisibility
8:20 PM
Sat, Oct 22
34 °FChilly.12 mph93%30.77 "HgN/A
7:50 PM34 °FChilly.13 mph93%30.74 "HgN/A
7:20 PM34 °FPassing clouds.10 mph93%30.74 "HgN/A
6:50 PM36 °FPassing clouds.9 mph93%30.74 "HgN/A
6:20 PM36 °FPassing clouds.12 mph93%30.74 "HgN/A
5:50 PM34 °FPassing clouds.7 mph93%30.74 "HgN/A
5:20 PM34 °FPassing clouds.10 mph100%30.74 "HgN/A
4:50 PM34 °FPassing clouds.12 mph100%30.74 "HgN/A
4:20 PM34 °FChilly.8 mph93%30.74 "HgN/A
3:50 PM36 °FPassing clouds.8 mph87%30.74 "HgN/A
3:20 PM36 °FPassing clouds.12 mph93%30.74 "HgN/A
2:50 PM36 °FPassing clouds.10 mph93%30.74 "HgN/A
2:20 PM36 °FPassing clouds.14 mph100%30.74 "HgN/A
1:50 PM36 °FPassing clouds.9 mph100%30.74 "HgN/A
1:20 PM36 °FPartly sunny.3 mph100%30.74 "HgN/A
12:50 PM36 °FPartly sunny.No wind100%30.74 "HgN/A
12:20 PM36 °FFog.5 mph93%30.74 "HgN/A
11:50 AM34 °FFog.10 mph100%30.74 "HgN/A
11:20 AM34 °FPartly sunny.8 mph93%30.74 "Hg4 mi
10:50 AM32 °FScattered clouds.8 mph100%30.74 "HgN/A
10:20 AM32 °FScattered clouds.6 mph100%30.74 "HgN/A
9:50 AM32 °FScattered clouds.6 mph100%30.72 "HgN/A
9:20 AM32 °FScattered clouds.8 mph100%30.72 "HgN/A
8:50 AM30 °FIce fog.8 mph100%30.72 "Hg0 mi
8:20 AM30 °FIce fog.6 mph100%30.72 "Hg0 mi
7:50 AM30 °FIce fog.5 mph93%30.72 "Hg0 mi
7:20 AM30 °FIce fog.6 mph93%30.72 "Hg0 mi
6:50 AM30 °FIce fog.3 mph93%30.72 "Hg0 mi
6:20 AM30 °FIce fog.6 mph93%30.69 "Hg0 mi
5:50 AM30 °FIce fog.7 mph93%30.69 "Hg0 mi
5:20 AM28 °FIce fog.5 mph100%30.69 "Hg0 mi
4:50 AM30 °FIce fog.5 mph93%30.69 "Hg0 mi
4:20 AM30 °FIce fog.6 mph93%30.69 "Hg0 mi
3:50 AM30 °FIce fog.7 mph93%30.69 "Hg0 mi
3:20 AM30 °FIce fog.3 mph93%30.69 "Hg1 mi
2:50 AM30 °FChilly.3 mph100%30.69 "HgN/A
1:50 AM30 °FChilly.5 mph100%30.69 "HgN/A
1:20 AM32 °FChilly.5 mph93%30.66 "HgN/A
12:50 AM32 °FChilly.6 mph93%30.66 "HgN/A
12:20 AM32 °FClear.7 mph93%30.66 "Hg10 mi
11:50 PM
Fri, Oct 21
32 °FClear.6 mph93%30.66 "Hg10 mi
11:20 PM32 °FClear.5 mph93%30.66 "Hg10 mi
10:50 PM32 °FClear.6 mph93%30.66 "Hg10 mi
10:20 PM32 °FClear.7 mph93%30.66 "Hg10 mi
9:50 PM32 °FClear.8 mph93%30.66 "Hg10 mi
9:20 PM32 °FClear.8 mph93%30.63 "Hg10 mi
Weather by CustomWeather, © 2016

See weather overviewHow to use our weather pages